sat.trackr.live / text

‹ back to catalog

STARLINK-37767

NORAD 69245 · 2026-117H

PAYLOAD ACTIVE UNKNOWN

§ Identity

Operator
Country
US
Launch date
2026-05-29
Launch site
AFETR
Launch vehicle
Mass (kg)
RCS (m²)

Purposes: comms

External: N2YO · Heavens-Above · Gunter

§ Orbital elements

Epoch: 2026-09-19T22:49:24.348000Z

Period
93.85 min
Inclination
53.1582°
Eccentricity
0.0001786
Mean motion
15.34403083 rev/d
Perigee alt
461.5 km
Apogee alt
463.9 km
Semi-major
6,840.8 km
B*
2.6604e-4
RAAN
156.2459°
Arg perigee
53.6141°
Mean anomaly
306.5026°
Rev number
1,758

§ Raw data

STARLINK-377671 69245U 26117H   26262.95097625  .00008623  00000+0  26604-3 0  99932 69245  53.1582 156.2459 0001786  53.6141 306.5026 15.34403083 17580

JSON: /api/v1/satellites/69245 · /tle

For live sub-satellite position, see the globe view (requires WebGL).

§ Visibility from observer

Set your observer location to see the next 7 days of passes ≥ 10°. The values pass through the URL so the page stays shareable.

No JS? Fill the form by hand. The geolocation button needs JavaScript.